timestamp,surface_pressure_avg,surface_temp_avg,battery_voltage,lat,long
2018-11-14 00:00:00+00:00,247.5581,8.3,12.97,47.84626,-54.09684
2018-11-14 00:10:00+00:00,252.5281,8.3,12.97,47.84626,-54.09684
2018-11-14 00:20:00+00:00,261.7981,8.3,13.05,47.84626,-54.09684
2018-11-14 00:30:00+00:00,263.5697,8.3,13.05,47.84626,-54.09684
2018-11-14 00:40:00+00:00,263.6964,8.22,13.05,47.84626,-54.09684
2018-11-14 00:50:00+00:00,271.0514,8.2,13.05,47.84626,-54.09684
2018-11-14 01:00:00+00:00,279.2781,8.2,12.97,47.84626,-54.09684
2018-11-14 01:10:00+00:00,283.7897,8.1,12.89,47.84626,-54.09684
2018-11-14 01:20:00+00:00,282.4346,8.03,12.97,47.84626,-54.09684
2018-11-14 01:30:00+00:00,285.0414,8.0,12.97,47.84626,-54.09684
2018-11-14 01:40:00+00:00,289.7047,8.0,13.05,47.84626,-54.09684
2018-11-14 01:50:00+00:00,298.2347,8.0,13.05,47.84626,-54.09684
2018-11-14 02:00:00+00:00,300.4413,7.98,12.97,47.84626,-54.09684
2018-11-14 02:10:00+00:00,299.998,7.97,12.89,47.84626,-54.09684
2018-11-14 02:20:00+00:00,303.2897,8.0,12.97,47.84626,-54.09684
2018-11-14 02:30:00+00:00,305.4963,8.0,12.97,47.84626,-54.09684
2018-11-14 02:40:00+00:00,304.353,8.1,12.97,47.84626,-54.09684
2018-11-14 02:50:00+00:00,303.1646,8.2,13.05,47.84626,-54.09684
2018-11-14 03:00:00+00:00,308.5263,8.25,12.97,47.84626,-54.09684
2018-11-14 03:10:00+00:00,309.978,8.24,12.89,47.84626,-54.09684
2018-11-14 03:20:00+00:00,304.7847,8.25,12.97,47.84626,-54.09684
2018-11-14 03:30:00+00:00,309.813,8.26,12.97,47.84626,-54.09684
2018-11-14 03:40:00+00:00,315.678,8.28,12.97,47.84626,-54.09684
2018-11-14 03:50:00+00:00,314.2247,8.3,12.97,47.84626,-54.09684
2018-11-14 04:00:00+00:00,313.8097,8.3,12.97,47.84626,-54.09684
2018-11-14 04:10:00+00:00,317.9613,8.3,12.81,47.84626,-54.09684
2018-11-14 04:20:00+00:00,317.6713,8.3,12.97,47.84626,-54.09684
2018-11-14 04:30:00+00:00,310.753,8.3,12.97,47.84626,-54.09684
2018-11-14 04:40:00+00:00,313.398,8.3,12.97,47.84626,-54.09684
2018-11-14 04:50:00+00:00,322.9113,8.3,12.97,47.84626,-54.09684
2018-11-14 05:00:00+00:00,323.113,8.3,12.89,47.84626,-54.09684
2018-11-14 05:10:00+00:00,318.7596,8.2,12.81,47.84626,-54.09684
2018-11-14 05:20:00+00:00,315.3096,8.22,12.89,47.84626,-54.09684
2018-11-14 05:30:00+00:00,311.6163,8.2,12.97,47.84626,-54.09684
2018-11-14 05:40:00+00:00,299.0714,8.0,12.97,47.84626,-54.09684
2018-11-14 05:50:00+00:00,296.4915,7.9,12.97,47.84626,-54.09684
2018-11-14 06:00:00+00:00,301.4846,7.95,12.89,47.84626,-54.09684
2018-11-14 06:10:00+00:00,297.8963,7.88,12.81,47.84626,-54.09684
2018-11-14 06:20:00+00:00,289.7647,7.8,12.89,47.84626,-54.09684
2018-11-14 06:30:00+00:00,292.913,7.7,12.89,47.84626,-54.09684
2018-11-14 06:40:00+00:00,288.958,7.7,12.97,47.84626,-54.09684
2018-11-14 06:50:00+00:00,277.9814,7.7,12.97,47.84626,-54.09684
2018-11-14 07:00:00+00:00,267.5731,7.73,12.89,47.84626,-54.09684
2018-11-14 07:10:00+00:00,259.1948,7.79,12.81,47.84626,-54.09684
2018-11-14 07:20:00+00:00,242.9264,7.79,12.89,47.84626,-54.09684
2018-11-14 07:30:00+00:00,235.7664,7.78,12.89,47.84626,-54.09684
2018-11-14 07:40:00+00:00,237.7448,7.8,12.89,47.84626,-54.09684
2018-11-14 07:50:00+00:00,235.6115,7.25,12.97,47.84626,-54.09684
2018-11-14 08:00:00+00:00,229.8347,7.08,12.81,47.84626,-54.09684
2018-11-14 08:10:00+00:00,231.4931,7.29,12.81,47.84626,-54.09684
2018-11-14 08:20:00+00:00,233.0648,7.18,12.89,47.84626,-54.09684
2018-11-14 08:30:00+00:00,236.3397,6.76,12.89,47.84626,-54.09684
2018-11-14 08:40:00+00:00,239.1864,6.5,12.89,47.84626,-54.09684
2018-11-14 08:50:00+00:00,238.0631,6.4,12.89,47.84626,-54.09684
2018-11-14 09:00:00+00:00,231.1731,6.4,12.81,47.84626,-54.09684
2018-11-14 09:10:00+00:00,232.1081,6.41,12.73,47.84626,-54.09684
2018-11-14 09:20:00+00:00,240.7531,6.5,12.81,47.84626,-54.09684
2018-11-14 09:30:00+00:00,241.7231,6.5,12.89,47.84626,-54.09684
2018-11-14 09:40:00+00:00,249.5047,6.5,12.89,47.84626,-54.09684
2018-11-14 09:50:00+00:00,262.9198,6.78,12.89,47.84626,-54.09684
2018-11-14 10:00:00+00:00,269.5114,6.8,12.81,47.84626,-54.09684
2018-11-14 10:10:00+00:00,268.1164,6.75,12.73,47.84626,-54.09684
2018-11-14 10:20:00+00:00,275.6381,6.9,12.81,47.84626,-54.09684
2018-11-14 10:30:00+00:00,281.3064,7.39,12.89,47.84626,-54.09684
2018-11-14 10:40:00+00:00,279.2498,7.4,12.89,47.84626,-54.09684
2018-11-14 10:50:00+00:00,280.903,7.3,12.89,47.84626,-54.09684
2018-11-14 11:00:00+00:00,292.0046,7.37,12.81,47.84626,-54.09684
2018-11-14 11:10:00+00:00,293.8363,7.4,12.73,47.84626,-54.09684
2018-11-14 11:20:00+00:00,294.1863,7.3,12.81,47.84626,-54.09684
2018-11-14 11:30:00+00:00,297.0681,7.65,12.89,47.84626,-54.09684
2018-11-14 11:40:00+00:00,298.8147,7.7,12.89,47.84626,-54.09684
2018-11-14 11:50:00+00:00,294.7797,7.63,12.89,47.84626,-54.09684
2018-11-14 12:00:00+00:00,299.428,7.8,12.81,47.84626,-54.09684
2018-11-14 12:10:00+00:00,296.3597,7.8,12.73,47.84626,-54.09684
2018-11-14 12:20:00+00:00,291.133,7.8,12.81,47.84626,-54.09684
2018-11-14 12:30:00+00:00,289.783,7.86,12.81,47.84626,-54.09684
2018-11-14 12:40:00+00:00,299.6796,7.9,12.89,47.84626,-54.09684
2018-11-14 12:50:00+00:00,300.8713,7.96,12.89,47.84626,-54.09684
2018-11-14 13:00:00+00:00,295.2347,7.98,12.89,47.84626,-54.09684
2018-11-14 13:10:00+00:00,293.2114,8.0,12.81,47.84626,-54.09684
2018-11-14 13:20:00+00:00,300.2764,8.01,12.89,47.84626,-54.09684
2018-11-14 13:30:00+00:00,299.9481,8.08,12.97,47.84626,-54.09684
2018-11-14 13:40:00+00:00,301.3247,8.0,12.97,47.84626,-54.09684
2018-11-14 13:50:00+00:00,310.0563,8.04,12.97,47.84626,-54.09684
2018-11-14 14:00:00+00:00,319.4264,8.1,12.89,47.84626,-54.09684
2018-11-14 14:10:00+00:00,319.2947,8.1,12.81,47.84626,-54.09684
2018-11-14 14:20:00+00:00,329.7547,8.1,12.97,47.84626,-54.09684
2018-11-14 14:30:00+00:00,345.9946,8.1,13.05,47.84626,-54.09684
2018-11-14 14:40:00+00:00,350.5895,8.1,13.37,47.84626,-54.09684
2018-11-14 14:50:00+00:00,344.403,8.1,13.53,47.84626,-54.09684
2018-11-14 15:00:00+00:00,345.2096,8.1,13.92,47.84626,-54.09684
2018-11-14 15:10:00+00:00,344.5947,8.1,14.0,47.84626,-54.09684
2018-11-14 15:20:00+00:00,338.438,8.1,13.84,47.84626,-54.09684
2018-11-14 15:30:00+00:00,331.8264,8.1,14.08,47.84626,-54.09684
2018-11-14 15:40:00+00:00,336.8513,8.1,14.32,47.84626,-54.09684
2018-11-14 15:50:00+00:00,345.3596,8.1,16.07,47.84626,-54.09684
2018-11-14 16:00:00+00:00,341.4129,8.1,14.24,47.84626,-54.09684
2018-11-14 16:10:00+00:00,333.3413,8.17,15.75,47.84626,-54.09684
2018-11-14 16:20:00+00:00,334.8896,8.19,14.48,47.84626,-54.09684
2018-11-14 16:30:00+00:00,338.0163,8.2,14.48,47.84626,-54.09684
2018-11-14 16:40:00+00:00,339.113,8.2,14.32,47.84626,-54.09684
2018-11-14 16:50:00+00:00,343.1479,8.2,16.07,47.84626,-54.09684
2018-11-14 17:00:00+00:00,344.418,8.2,14.64,47.84626,-54.09684
2018-11-14 17:10:00+00:00,340.423,8.17,14.48,47.84626,-54.09684
2018-11-14 17:20:00+00:00,341.3812,8.16,14.4,47.84626,-54.09684
2018-11-14 17:30:00+00:00,344.713,8.17,14.16,47.84626,-54.09684
2018-11-14 17:40:00+00:00,335.6363,8.1,14.16,47.84626,-54.09684
2018-11-14 17:50:00+00:00,324.4264,8.1,14.16,47.84626,-54.09684
2018-11-14 18:00:00+00:00,313.968,8.1,14.16,47.84626,-54.09684
2018-11-14 18:10:00+00:00,300.5146,8.1,14.0,47.84626,-54.09684
2018-11-14 18:20:00+00:00,286.7614,8.1,14.08,47.84626,-54.09684
2018-11-14 18:30:00+00:00,282.8447,8.1,14.16,47.84626,-54.09684
2018-11-14 18:40:00+00:00,270.5564,8.09,14.08,47.84626,-54.09684
2018-11-14 18:50:00+00:00,257.0197,8.07,14.08,47.84626,-54.09684
2018-11-14 19:00:00+00:00,257.2064,8.07,13.92,47.84626,-54.09684
2018-11-14 19:10:00+00:00,250.5864,8.0,13.76,47.84626,-54.09684
2018-11-14 19:20:00+00:00,240.5297,8.06,13.68,47.84626,-54.09684
2018-11-14 19:30:00+00:00,235.8164,8.08,13.68,47.84626,-54.09684
2018-11-14 19:40:00+00:00,236.3281,8.04,13.6,47.84626,-54.09684
2018-11-14 19:50:00+00:00,235.7798,8.05,13.6,47.84626,-54.09684
2018-11-14 20:00:00+00:00,233.8531,8.0,13.44,47.84626,-54.09684
2018-11-14 20:10:00+00:00,229.7414,8.0,13.29,47.84626,-54.09684
2018-11-14 20:20:00+00:00,227.2281,8.0,13.29,47.84626,-54.09684
2018-11-14 20:30:00+00:00,222.8248,8.0,13.29,47.84626,-54.09684
2018-11-14 20:40:00+00:00,222.4182,8.0,13.29,47.84626,-54.09684
2018-11-14 20:50:00+00:00,227.8815,8.0,13.29,47.84626,-54.09684
2018-11-14 21:00:00+00:00,232.1264,7.98,13.13,47.84626,-54.09684
2018-11-14 21:10:00+00:00,231.8414,7.9,13.05,47.84626,-54.09684
2018-11-14 21:20:00+00:00,230.4914,7.94,13.13,47.84626,-54.09684
2018-11-14 21:30:00+00:00,233.0831,7.99,13.13,47.84626,-54.09684
2018-11-14 21:40:00+00:00,231.9098,7.99,13.13,47.84626,-54.09684
2018-11-14 21:50:00+00:00,224.8114,7.98,13.13,47.84626,-54.09684
2018-11-14 22:00:00+00:00,226.5098,7.98,13.05,47.84626,-54.09684
2018-11-14 22:10:00+00:00,232.5247,7.98,12.97,47.84626,-54.09684
2018-11-14 22:20:00+00:00,231.4897,7.97,13.05,47.84626,-54.09684
2018-11-14 22:30:00+00:00,233.2014,7.93,13.05,47.84626,-54.09684
2018-11-14 22:40:00+00:00,230.618,7.9,13.05,47.84626,-54.09684
2018-11-14 22:50:00+00:00,229.9731,7.9,13.05,47.84626,-54.09684
2018-11-14 23:00:00+00:00,231.0998,7.9,13.05,47.84626,-54.09684
2018-11-14 23:10:00+00:00,228.3331,7.89,12.97,47.84626,-54.09684
2018-11-14 23:20:00+00:00,223.2698,7.82,13.05,47.84626,-54.09684
2018-11-14 23:30:00+00:00,219.5148,7.9,13.05,47.84626,-54.09684
2018-11-14 23:40:00+00:00,221.7981,7.9,13.05,47.84626,-54.09684
2018-11-14 23:50:00+00:00,222.3498,7.9,13.05,47.84626,-54.09684
